Wind_Speed
30 30 30 26 26 25 24 24 22 21 21 20 20 21 21 22 23 23 24 25 25 27 28 29 31 32 34 34 34 35 34 34 34 35 35 34 34 34 33 34 36 36 35
30 29 28 25 25 25 25 25 25 24 23 22 23 23 24 25 26 26 27 27 28 29 30 30 31 33 34 35 37 36 35 34 34 34 35 35 34 34 34 35 36 37 38
27 27 27 27 25 26 26 27 27 26 25 25 25 25 26 27 28 28 29 30 30 30 31 31 32 33 34 35 36 35 35 33 32 32 31 32 33 34 35 36 36 37 39
28 28 27 29 27 27 27 28 29 29 27 26 27 28 28 29 29 30 31 32 31 32 32 32 32 33 33 33 33 34 34 33 32 32 33 33 35 36 38 38 38 39 40
27 27 28 28 28 28 29 29 29 30 28 28 28 29 30 30 30 31 32 33 34 34 34 33 33 33 33 32 33 33 33 33 33 33 33 35 37 38 40 41 42 43 43
27 28 29 29 30 30 32 31 31 31 32 31 31 31 32 32 32 33 33 34 34 34 34 34 35 35 34 34 35 35 35 34 34 35 35 36 38 39 41 43 45 45 46
28 29 29 30 31 32 32 32 33 33 34 34 33 33 34 34 35 35 36 36 35 36 36 36 36 37 37 37 37 36 37 37 37 38 38 39 40 42 44 46 48 49 50
28 28 29 29 31 32 33 33 33 33 34 35 35 36 36 37 37 37 38 38 37 37 38 38 37 38 38 38 38 38 38 38 40 41 42 43 44 46 47 49 51 52 54
28 28 28 29 29 30 31 31 32 33 34 34 35 36 37 38 38 38 39 39 39 40 40 40 40 39 40 39 39 38 39 40 42 43 45 46 48 49 50 51 53 54 55
28 28 28 28 29 29 30 31 32 33 34 35 37 38 38 39 39 40 40 41 40 41 41 41 40 40 40 40 40 41 41 43 44 46 46 47 49 50 51 52 54 55 56
26 28 28 28 29 30 30 31 31 32 34 35 37 38 39 40 41 41 41 41 41 41 41 40 40 40 40 41 42 43 43 45 46 46 47 48 48 50 51 52 52 53 54
25 27 28 28 29 30 31 32 33 33 34 35 36 38 39 39 40 40 41 41 41 42 41 41 40 40 41 41 42 43 44 46 46 46 47 47 48 49 49 50 50 51 52
25 26 27 28 29 30 31 32 33 34 35 36 37 38 38 39 39 40 41 41 42 42 41 41 41 40 41 42 43 43 44 45 46 45 46 46 45 45 47 47 48 49 49
25 26 27 29 30 31 31 32 33 34 35 36 37 37 38 39 39 40 41 41 41 41 41 41 41 41 41 42 42 42 43 43 43 44 44 44 44 45 45 46 46 46 46
24 25 27 29 30 31 31 32 32 33 34 35 36 37 38 39 39 39 40 39 39 39 39 39 39 39 39 39 39 40 40 40 40 41 41 42 42 42 43 43 42 42 41
24 25 27 28 29 30 31 31 31 32 33 34 35 35 35 36 36 36 36 36 36 36 36 37 36 36 36 36 36 37 37 37 37 38 38 38 38 38 37 36 35 34 33
25 26 27 27 28 28 29 30 30 30 31 32 32 32 33 33 34 34 33 33 33 33 32 32 33 33 33 33 33 33 33 33 33 33 33 32 31 31 30 29 28 28 27
23 24 25 25 25 25 26 27 28 29 30 30 30 30 30 30 30 30 30 31 31 30 30 31 31 31 31 31 30 30 31 30 29 29 29 29 29 28 27 26 25 25 24
22 23 23 23 23 23 23 25 26 27 27 27 27 27 27 27 28 28 28 28 28 28 28 28 28 28 28 27 28 28 27 26 26 26 27 27 26 25 25 24 23 23 22
21 21 22 22 22 22 22 23 23 24 24 24 24 25 25 25 25 25 25 26 26 26 26 26 26 25 26 25 25 24 24 24 24 24 24 24 24 23 22 21 21 20 20
20 20 21 22 22 23 23 22 22 22 22 23 23 23 24 24 24 24 24 24 24 24 24 24 24 24 23 23 23 23 23 22 22 21 21 21 20 20 19 19 19 19 19
18 19 19 19 20 21 21 21 21 21 21 21 21 22 22 22 22 22 22 22 22 22 23 23 22 21 21 20 20 20 20 19 18 18 18 18 18 18 18 18 18 18 19
15 16 17 16 16 17 18 19 19 19 19 20 20 20 20 21 21 20 20 20 20 20 20 20 20 19 18 18 18 17 16 16 15 15 16 16 17 17 16 17 18 18 18
14 14 15 15 15 16 16 17 17 17 18 18 18 18 18 18 19 18 18 18 18 19 18 18 17 17 17 16 16 15 14 14 14 14 15 15 16 16 16 17 18 17 17
12 13 13 13 13 13 14 14 15 16 16 16 16 16 16 16 17 16 16 16 16 16 16 16 15 15 15 14 13 13 13 13 13 14 14 14 15 15 16 16 17 17 16
12 12 12 12 12 12 13 13 14 14 14 14 14 14 13 14 14 14 14 14 14 14 14 14 13 12 11 11 10 11 11 12 12 13 13 13 14 15 15 16 16 15 15
Wind_Direction
240 240 240 239 241 242 245 249 255 257 260 263 265 265 267 270 274 275 276 276 281 283 285 286 286 287 286 286 288 289 289 287 287 284 282 285 286 286 286 284 283 280 281
236 237 240 240 240 240 244 249 253 254 256 259 263 264 266 269 273 277 278 280 285 287 290 293 294 294 291 289 287 290 290 288 288 285 283 283 284 284 284 283 283 281 280
235 237 241 245 244 245 244 249 252 255 256 258 261 265 268 271 273 278 281 284 285 289 292 294 299 298 295 293 290 288 290 289 288 286 285 286 285 284 283 284 285 284 282
241 244 249 249 251 251 253 254 255 258 259 260 261 265 269 272 275 279 282 287 289 293 297 295 298 299 297 296 294 290 289 289 289 287 287 287 286 285 284 284 284 285 284
246 248 250 251 253 255 257 258 259 262 263 263 265 265 268 272 277 281 284 286 289 292 295 295 297 299 297 294 294 294 292 292 291 290 288 287 286 286 285 285 285 285 284
247 249 251 251 253 256 257 259 261 263 267 268 269 270 272 275 280 283 287 289 292 294 296 296 297 298 296 294 293 292 292 292 291 291 290 289 287 285 286 286 285 284 284
247 249 252 252 254 258 257 259 261 263 265 268 270 272 276 280 282 284 287 289 291 294 296 297 296 295 294 293 292 292 292 290 290 290 289 288 287 285 285 285 284 284 284
248 249 250 252 254 255 257 259 259 261 263 267 269 271 274 278 281 284 285 287 290 292 294 295 295 294 293 293 292 290 289 289 290 290 289 288 288 287 287 286 285 284 284
249 250 251 252 253 255 257 257 260 262 263 265 267 270 274 277 280 284 286 288 289 290 291 292 291 291 291 292 292 290 289 288 289 289 289 289 290 288 287 287 287 286 285
250 251 251 253 254 256 258 259 261 263 264 265 267 270 273 275 279 281 283 285 287 289 290 291 290 290 291 290 290 291 289 290 290 289 289 290 290 289 288 288 287 286 286
248 248 250 252 254 255 257 259 262 264 266 267 269 271 274 276 278 280 282 284 286 287 289 289 290 291 290 289 289 290 289 289 289 289 290 290 290 290 289 289 288 288 287
248 250 252 254 255 257 259 260 263 265 267 268 270 272 274 276 279 281 282 283 285 286 287 287 289 289 289 289 289 288 289 289 290 292 292 293 293 294 293 292 291 290 289
250 252 253 256 258 259 261 263 265 267 269 270 271 273 275 278 280 281 282 284 285 286 286 287 288 288 288 288 289 289 290 291 292 294 295 295 295 296 296 295 295 294 293
256 257 257 258 260 261 262 265 266 268 269 271 272 274 275 277 278 279 281 283 284 284 285 287 287 287 288 290 291 292 293 294 295 296 297 298 298 298 298 298 298 297 297
263 263 263 262 261 263 265 268 269 269 270 271 272 273 275 276 278 280 283 284 285 286 287 288 288 290 290 292 293 294 296 297 297 298 299 299 299 299 300 300 301 302 303
269 266 264 264 265 267 268 269 270 270 271 271 273 275 276 278 280 283 284 286 287 287 288 289 290 290 292 294 296 298 298 299 300 301 302 302 302 303 305 307 308 309 310
273 270 270 268 268 269 269 270 270 271 271 272 275 277 279 281 282 283 286 288 289 291 292 293 294 296 297 298 299 300 301 302 303 304 305 307 308 310 311 313 314 316 318
274 274 274 273 272 269 269 270 271 273 273 275 276 278 280 282 283 286 287 288 290 292 294 296 297 298 299 300 301 301 302 303 305 306 308 310 312 313 313 315 317 320 321
276 276 275 274 273 273 273 273 273 274 274 276 279 282 284 285 286 287 288 289 291 294 297 299 299 301 301 301 301 302 303 304 307 307 309 311 313 314 315 316 319 322 323
278 278 279 279 278 275 275 274 277 278 280 282 284 286 288 288 289 290 291 293 295 297 298 299 300 301 302 302 303 303 304 306 308 309 310 312 313 314 317 319 322 323 325
280 280 279 278 277 277 276 276 279 280 282 284 286 287 288 288 289 291 292 294 296 297 298 300 301 302 302 303 304 305 307 309 310 312 313 315 317 320 324 325 326 327 328
280 281 281 279 279 278 278 280 282 283 285 285 286 286 287 288 290 291 292 293 294 296 298 300 302 302 303 305 308 310 312 314 315 317 319 321 324 326 329 331 331 332 332
289 288 288 287 286 285 286 286 286 286 286 286 287 288 289 290 291 291 292 293 294 297 299 301 301 301 303 307 311 313 316 319 321 322 324 326 328 331 333 335 335 335 336
298 296 295 293 289 287 288 289 289 288 289 290 290 291 291 291 293 294 293 294 296 298 299 300 300 301 302 306 310 312 316 320 323 325 327 329 331 333 334 336 337 339 340
310 306 304 301 295 292 291 293 295 295 293 291 291 292 294 295 297 296 295 296 298 299 300 301 301 302 304 307 310 313 318 322 324 327 331 334 334 335 336 339 340 341 341
324 320 316 311 307 303 301 299 299 297 296 295 295 296 298 299 300 300 299 299 300 302 304 304 304 306 309 312 315 320 324 325 328 331 335 337 337 338 339 340 341 341 342
Height
5833 5834 5833 5837 5839 5843 5846 5848 5850 5851 5853 5855 5857 5858 5859 5860 5861 5861 5862 5862 5862 5861 5860 5860 5859 5858 5857 5855 5853 5851 5850 5849 5847 5845 5845 5844 5843 5842 5841 5840 5838 5837 5835
5828 5829 5829 5831 5834 5837 5841 5843 5845 5847 5848 5850 5852 5853 5855 5855 5856 5856 5856 5856 5856 5855 5855 5854 5853 5851 5850 5848 5846 5844 5842 5841 5840 5838 5837 5836 5836 5835 5834 5832 5831 5829 5827
5823 5823 5825 5828 5830 5832 5835 5838 5840 5841 5843 5845 5846 5848 5849 5849 5850 5851 5851 5850 5850 5849 5848 5847 5845 5844 5843 5841 5839 5837 5835 5834 5832 5831 5830 5828 5828 5826 5825 5824 5822 5820 5818
5820 5820 5822 5825 5827 5829 5831 5833 5835 5836 5838 5839 5840 5841 5842 5843 5844 5844 5844 5844 5843 5842 5841 5840 5839 5837 5835 5833 5831 5830 5828 5827 5825 5823 5822 5821 5819 5817 5816 5815 5813 5811 5809
5815 5817 5819 5821 5822 5825 5826 5829 5830 5831 5832 5833 5834 5835 5836 5837 5837 5837 5837 5837 5837 5836 5835 5833 5832 5830 5828 5826 5824 5822 5821 5819 5818 5816 5814 5813 5811 5808 5806 5805 5803 5801 5798
5811 5813 5814 5816 5817 5820 5822 5823 5824 5825 5826 5827 5828 5828 5829 5830 5830 5830 5830 5830 5830 5829 5828 5827 5825 5823 5821 5819 5817 5815 5813 5812 5810 5808 5806 5804 5801 5799 5796 5794 5792 5789 5786
5807 5809 5810 5811 5813 5814 5815 5817 5818 5819 5820 5821 5821 5821 5822 5823 5823 5823 5823 5823 5822 5821 5820 5819 5817 5815 5813 5811 5809 5807 5805 5803 5801 5799 5796 5794 5791 5789 5786 5783 5780 5777 5773
5802 5803 5805 5806 5807 5809 5810 5811 5812 5813 5814 5815 5815 5815 5815 5815 5815 5815 5815 5814 5814 5813 5812 5811 5809 5807 5805 5803 5801 5799 5797 5794 5791 5789 5786 5783 5781 5778 5774 5771 5768 5764 5760
5796 5797 5799 5800 5801 5802 5804 5805 5805 5806 5807 5808 5808 5808 5808 5808 5807 5807 5806 5806 5805 5804 5803 5802 5800 5797 5795 5793 5791 5789 5787 5784 5781 5779 5776 5772 5769 5765 5762 5758 5754 5750 5746
5790 5791 5793 5794 5795 5796 5797 5798 5799 5799 5799 5800 5800 5801 5800 5800 5799 5799 5798 5797 5796 5794 5793 5791 5790 5787 5785 5783 5781 5779 5776 5774 5771 5768 5764 5761 5757 5753 5749 5744 5740 5735 5730
5783 5785 5786 5787 5788 5789 5790 5790 5791 5791 5792 5792 5793 5793 5792 5792 5791 5789 5788 5788 5787 5785 5783 5782 5780 5778 5776 5773 5771 5769 5766 5763 5760 5757 5753 5749 5745 5741 5736 5731 5726 5720 5715
5777 5778 5779 5780 5781 5782 5782 5783 5783 5784 5784 5784 5784 5784 5783 5783 5782 5781 5779 5778 5777 5775 5773 5771 5770 5768 5766 5764 5761 5759 5756 5753 5749 5746 5742 5737 5733 5728 5723 5717 5712 5706 5700
5771 5772 5773 5773 5774 5774 5775 5775 5775 5775 5775 5775 5775 5775 5774 5774 5773 5772 5771 5769 5768 5766 5763 5762 5760 5758 5756 5754 5751 5748 5745 5742 5738 5734 5730 5726 5721 5716 5710 5704 5698 5692 5686
5765 5765 5766 5766 5767 5767 5767 5767 5767 5767 5767 5767 5766 5766 5765 5765 5764 5763 5761 5760 5758 5756 5754 5753 5751 5748 5746 5743 5741 5738 5734 5730 5727 5723 5719 5714 5709 5704 5698 5692 5686 5680 5673
5758 5758 5758 5758 5759 5759 5759 5759 5759 5759 5758 5758 5758 5757 5757 5756 5755 5754 5752 5750 5748 5747 5745 5743 5741 5738 5736 5733 5730 5727 5724 5720 5716 5712 5708 5703 5698 5692 5686 5680 5674 5668 5662
5751 5751 5751 5751 5751 5751 5751 5751 5750 5750 5750 5750 5749 5749 5748 5747 5746 5745 5743 5742 5740 5738 5736 5734 5732 5729 5726 5723 5720 5717 5714 5710 5706 5702 5697 5693 5688 5682 5676 5670 5664 5659 5654
5744 5743 5743 5743 5743 5743 5743 5743 5743 5742 5742 5741 5741 5740 5739 5739 5738 5736 5735 5733 5732 5730 5727 5725 5723 5720 5717 5714 5711 5708 5705 5701 5697 5693 5688 5684 5679 5673 5668 5663 5658 5652 5647
5738 5737 5736 5736 5735 5735 5735 5735 5734 5734 5734 5733 5733 5732 5731 5730 5729 5728 5727 5725 5723 5721 5719 5717 5715 5712 5709 5706 5703 5700 5696 5693 5689 5685 5680 5676 5671 5666 5662 5657 5652 5647 5643
5732 5731 5730 5729 5729 5728 5728 5728 5727 5727 5726 5726 5725 5724 5724 5723 5722 5720 5719 5717 5716 5714 5711 5709 5707 5704 5701 5699 5696 5692 5689 5685 5682 5678 5674 5669 5665 5661 5656 5652 5647 5643 5639
5726 5725 5724 5723 5722 5722 5722 5721 5721 5720 5720 5719 5718 5718 5717 5716 5714 5713 5711 5710 5708 5706 5704 5702 5700 5697 5695 5692 5689 5685 5682 5679 5675 5671 5668 5664 5660 5656 5652 5648 5643 5640 5636
5720 5719 5718 5718 5717 5716 5716 5715 5714 5714 5713 5713 5712 5711 5710 5709 5708 5706 5705 5703 5701 5700 5698 5696 5693 5691 5688 5685 5682 5679 5676 5673 5669 5666 5663 5659 5655 5652 5648 5644 5640 5636 5633
5715 5714 5713 5712 5711 5710 5710 5709 5709 5708 5707 5706 5706 5705 5704 5703 5701 5700 5698 5697 5695 5693 5692 5690 5687 5685 5683 5680 5677 5674 5671 5667 5664 5662 5659 5656 5652 5648 5645 5641 5637 5634 5630
5711 5709 5708 5707 5706 5705 5704 5704 5703 5702 5701 5701 5700 5699 5698 5697 5695 5694 5693 5691 5690 5688 5686 5684 5682 5680 5678 5675 5673 5670 5667 5664 5661 5659 5656 5653 5649 5646 5642 5639 5635 5631 5628
5707 5706 5704 5703 5702 5701 5700 5699 5698 5697 5696 5695 5694 5693 5692 5691 5689 5688 5687 5686 5684 5683 5681 5679 5677 5675 5673 5671 5669 5666 5664 5661 5659 5656 5653 5650 5647 5644 5640 5637 5633 5629 5626
5704 5702 5701 5699 5698 5697 5696 5695 5693 5692 5691 5690 5689 5688 5687 5685 5684 5683 5682 5680 5679 5677 5676 5674 5672 5671 5669 5667 5665 5663 5661 5659 5656 5654 5651 5648 5645 5642 5638 5635 5632 5628 5625
5701 5700 5698 5696 5695 5693 5692 5691 5689 5688 5687 5686 5685 5684 5683 5681 5680 5678 5677 5675 5674 5673 5671 5670 5668 5667 5665 5664 5662 5661 5659 5656 5654 5652 5649 5646 5643 5640 5637 5634 5630 5627 5624